Terug naar catalogus

STARLINK-36192

ActiefCommunicatieVLEO
NORAD 67024·PAYLOAD·🇺🇸 United States

Gelanceerd Dec 10, 2025 vanaf Vandenberg Space Force Base

Loading…

Volgende Passages (komende 24 uur)

TLE

VersSource: CelesTrak SupGP

Epoch: Sep 15, 2026, 04:11 UTC

1 67024C 25293X   26258.17479167  .00037109  00000+0  31097-2 0  2584
2 67024  70.0017 336.7454 0003513 267.8562 307.4503 14.98314144    18

Volg STARLINK-36192 in realtime met AllMySat

Download on the App Store